User: anonymous   Login
Location: Ceske Budejovice
(48.9830°N, 14.4670°E)
Time: 20:43:28
(UTC+02:00)
Language:

N. Korean satellite - Orbit

View from above orbital plane
View from above orbital plane
View from above satellite
View from above satellite

Ground track
Ground track

The orbit data is extracted from the following two-line orbital elements,

1 39026U 12072A   20219.97983465  .00001687  00000-0  61727-4 0  9996
2 39026  97.2247 215.2865 0038945  65.4797 295.0496 15.28716692425024
Epoch (UTC): 06 August 2020 23:30:57
Eccentricity: 0.0038945
inclination: 97.2247°
perigee height: 453 km
apogee height: 506 km
right ascension of ascending node: 215.2865°
argument of perigee: 65.4797°
revolutions per day: 15.28716692
mean anomaly at epoch: 295.0496°
orbit number at epoch: 42502

The dashed part of the orbit path shows where the satellite is in the earth's shadow,  

DLR